Regional Weather Roundup
Issued by NWS

Home | Current Version | Previous Version | Graphics & Text | Print | Product List | Glossary On
Versions: 1 2 3 4 5 6 7 8 9 10 11 12 13 14 15 16 17 18 19 20 21 22 23 24 25 26 27 28 29 30 31 32 33 34 35 36 37 38 39 40 41 42 43 44 45 46 47 48 49 50
000
ASUS43 KDMX 272008
RWRIA

WEATHER ROUNDUP FOR IOWA
NATIONAL WEATHER SERVICE DES MOINES IA
300 PM CDT WED JUL 27 2016

NOTE: "FAIR" INDICATES FEW OR NO CLOUDS BELOW 12,000 FEET WITH NO
SIGNIFICANT WEATHER AND/OR OBSTRUCTIONS TO VISIBILITY.

* - THESE STATIONS ARE NOT NWS STATIONS...THUS NOT UNDER NWS
QUALITY CONTROL.  THEY ALSO DO NOT REPORT WEATHER SUCH
AS PRECIPITATION OR FOG.

IAZ001>003-012>014-020>022-031>034-043>046-272100-
   NORTHWEST IOWA

CITY           SKY/WX    TMP DP  RH WIND       PRES   REMARKS
CARROLL *      PTSUNNY   79  72  78 CALM      29.99F HX  82
CHEROKEE *     MOSUNNY   84  69  61 W6        29.98S HX  87
DENISON *      SUNNY     79  68  69 SE8       29.97S HX  81
LE MARS *      MOSUNNY   84  66  54 NW8       30.00S HX  86
SHELDON *      PTSUNNY   82  70  65 VRB6      29.97F HX  86
SIOUX CITY     PTSUNNY   86  68  54 VRB3      29.97F HX  89
SPENCER        PTSUNNY   85  69  58 W9        29.97F HX  89
STORM LAKE *   SUNNY     82  72  69 W7        29.99F HX  87
$$

IAZ055>058-069>071-079>083-090>094-272100-
   SOUTHWEST IOWA

CITY           SKY/WX    TMP DP  RH WIND       PRES   REMARKS
ATLANTIC *     PTSUNNY   72  64  78 SE10G18   29.97F
CLARINDA *       N/A     84  72  65 MISG      29.99F HX  89
COUNCIL BLFS * MOSUNNY   81  70  69 E12       29.99S HX  84
CRESTON *      MOSUNNY   82  68  61 S7G14     30.00F HX  85
HARLAN  *      MOSUNNY   77  68  73 VRB6      30.02R
LAMONI         MOSUNNY   85  69  58 SW8       29.98F HX  89
RED OAK *      PTSUNNY   82  73  74 SW6G13    29.97F HX  88
SHENANDOAH *   CLOUDY    84  75  74 SW10      29.98F HX  92
$$

IAZ047>049-059>061-072>074-084-272100-
   CENTRAL IOWA

CITY           SKY/WX    TMP DP  RH WIND       PRES   REMARKS
AMES           CLOUDY    77  72  84 CALM      29.98F
ANKENY *         N/A    N/A N/A N/A MISG        N/A
BOONE *        CLOUDY    77  70  78 CALM      29.99S
CHARITON *       N/A    N/A N/A N/A MISG        N/A
DES MOINES     CLOUDY    83  69  62 SW6       29.96F HX  86
GRINNELL*      MOSUNNY   81  66  61 SW5       30.00S HX  83
KNOXVILLE *    CLOUDY    82  66  57 S5        29.96F HX  85
MARSHALLTOWN   CLOUDY    79  68  69 S3        29.97F HX  81
NEWTON *       CLOUDY    81  66  61 CALM      29.97F HX  83
PELLA *        CLOUDY    85  67  54 SE3       29.98F HX  87
PERRY *          N/A     76  74  93 CALM      29.99S
$$

IAZ004>006-015-016-023>025-035-036-272100-
   NORTH CENTRAL IOWA

CITY           SKY/WX    TMP DP  RH WIND       PRES   REMARKS
ALGONA *       PTSUNNY   81  70  69 SW12      29.98S HX  84
ESTHERVILLE    CLOUDY    80  70  71 W6        29.96F HX  83
FORT DODGE *   CLOUDY    81  70  69 SW6       30.00F HX  84
MASON CITY     PTSUNNY   81  66  60 SW16      30.00F HX  83
FOREST CITY *    N/A     81  64  57 S12G17    29.98F HX  82
IOWA FALLS *     N/A     79  67  68 SW5       30.01S HX  81
$$

IAZ007>011-017>019-026>030-037>042-050>054-066-272100-
   NORTHEAST IOWA

CITY           SKY/WX    TMP DP  RH WIND       PRES   REMARKS
CEDAR RAPIDS   CLOUDY    82  70  66 S6        29.96F HX  86
CHARLES CITY * CLOUDY    81  70  69 SW8G14    30.00F HX  84
CLINTON *      PTSUNNY   86  70  58 SE6       29.98F HX  90
DECORAH *      CLOUDY    81  68  65 VRB5      29.98F HX  83
DUBUQUE        MOSUNNY   83  66  56 S6        29.99F HX  85
MONTICELLO *   PTSUNNY   82  68  61 S5        29.98F HX  85
OELWEIN *      CLOUDY    79  70  73 S5        30.00F HX  81
WATERLOO       CLOUDY    80  66  62 S7        29.97F HX  82
$$

IAZ064-065-067-068-078-272100-
   EAST CENTRAL IOWA

CITY           SKY/WX    TMP DP  RH WIND       PRES   REMARKS
DAVENPORT      MOSUNNY   84  67  56 MISG      29.97F HX  86
IOWA CITY      MOSUNNY   84  68  58 S5        29.97F HX  87
MT. PLEASANT * CLOUDY    89  70  52 S3        29.96F HX  94
MUSCATINE *    MOSUNNY   86  70  58 S7        29.96F HX  90
QUAD CITIES    MOSUNNY   87  68  52 S7        29.95F HX  90
$$

IAZ062-063-075>077-085>089-095>099-272100-
   SOUTHEAST IOWA

CITY           SKY/WX    TMP DP  RH WIND       PRES   REMARKS
BURLINGTON     PTSUNNY   84  70  62 CALM      29.96F HX  88
FAIRFIELD *    PTSUNNY   84  68  58 W5        29.96F HX  87
KEOKUK *       MOSUNNY   88  70  55 W7        29.94F HX  92
OSKALOOSA *      N/A     84  68  58 CALM      29.98F HX  86
CENTERVILLE *    N/A     86  66  51 CALM      29.98F HX  88
OTTUMWA        MOSUNNY   84  66  54 SW5       29.95F HX  86
WASHINGTON *   MOSUNNY   84  70  61 W3        29.98F HX  88
$$

ABBREVIATIONS USED IN REMARKS
   TC - TEMPERATURES IN CELSIUS
  WCI - WIND CHILL INDEX
   HX - HEAT INDEX
  VSB - VISIBILITY
$$





USA.gov is the U.S. government's official web portal to all federal, state and local government web resources and services.